[[{"header":{"parameterUnit":"m.s-1","parameterCategory":1,"la1":30.2991,"la2":30.254,"lo1":-89.0895,"lo2":-89.0444,"dy":0.0017,"dx":0.0017,"nx":28,"ny":28,"refTime":"2025-11-11T03:00:00:Z","depth":0,"parameterNumber":2,"parameterNumberName":"U-component_of_WINDS"},"data":[0,0,0,0,0,0,0,0,0,0,0,0,0,0,0,0,0,0,0,0,0,0,0,0,0,0,0,0,0,0,0,0,0,0,0,0,0,0,0,0,0,0,0,0,0,0,0,0,0,0,0,0,0,0,0,0,0,0,1.7366,1.7367,0,1.7453,1.7454,1.7455,1.7458,1.7457,1.7456,1.7455,1.7543,1.7546,1.755,0,0,0,0,0,0,0,0,0,0,0,0,0,1.7201,1.7204,1.7366,1.7367,1.7368,1.7453,1.7454,1.7455,1.7458,1.7457,1.7456,1.7455,1.7542,1.7546,1.755,0,0,0,0,0,0,0,0,0,0,0,0,0,1.7279,1.7205,1.7366,1.738,1.7382,1.7453,1.7454,1.7456,1.7459,1.7457,1.7456,1.7454,1.7541,1.7545,1.755,1.7612,0,0,1.7566,1.7568,0,0,0,0,0,0,0,0,1.7274,1.7285,1.7377,1.7379,1.7382,1.7443,1.7428,1.7508,1.7459,1.743,1.7455,1.7453,1.7511,1.7518,1.7538,1.7616,1.762,1.7566,1.7569,1.7571,1.7573,0,0,0,0,0,0,0,1.7269,1.7281,1.74,1.7378,1.7381,1.7382,1.7391,1.7443,1.7478,1.7432,1.7432,1.7443,1.7512,1.7533,1.754,1.7621,1.7566,1.757,1.7573,1.7575,1.7753,1.7755,0,0,0,0,0,0,1.7261,1.7277,1.7398,1.7403,1.7323,1.7386,1.7396,1.7425,1.7477,1.7484,1.7444,1.7443,1.7525,1.7534,1.7543,1.7618,1.7571,1.7576,1.7579,1.7752,1.7754,1.7756,0,0,0,0,0,0,1.7258,1.7272,1.7394,1.734,1.7356,1.739,1.7423,1.7428,1.7449,1.7486,1.7492,1.7459,1.7525,1.7536,1.7595,1.7621,1.7578,1.7582,1.775,1.7752,1.7755,1.7768,0,0,0,0,0,0,1.7253,1.7271,1.7295,1.7341,1.7358,1.7445,1.7424,1.743,1.7457,1.7456,1.7502,1.7509,1.7524,1.7587,1.76,1.7627,1.7586,1.7747,1.7751,1.7754,1.7765,1.7771,1.7775,0,0,0,0,0,1.7247,1.7295,1.7296,1.731,1.7389,1.7446,1.7456,1.7474,1.7459,1.7484,1.7508,1.7507,1.7616,1.7593,1.7607,1.7636,1.7746,1.775,1.7754,1.7763,1.7769,1.7775,0,0,0,0,0,0,1.7251,1.7301,1.7303,1.7367,1.7402,1.7447,1.7477,1.748,1.752,1.7517,1.7537,1.7547,1.7605,1.7627,1.76,1.7698,1.7679,1.7686,1.7682,1.7688,1.7693,1.7686,1.759,0,0,0,0,0,1.7259,1.7302,1.7343,1.7396,1.7414,1.7443,1.7468,1.7478,1.7515,1.753,1.7559,1.7594,1.7637,1.7664,1.7705,1.7769,1.7778,1.7796,1.7801,1.7805,1.781,1.7844,1.7852,1.7769,1.7769,1.7769,0,0,1.7277,1.731,1.7335,1.7397,1.7426,1.7468,1.7455,1.7501,1.7532,1.7537,1.7594,1.7616,1.7657,1.7718,1.7747,1.7738,1.7835,1.781,1.7813,1.7816,1.7849,1.7857,1.7864,1.7771,1.7771,1.7771,0,0,1.733,1.736,1.7406,1.7435,1.7479,1.7498,1.7509,1.7553,1.7568,1.7625,1.7629,1.7667,1.774,1.7769,1.7793,1.7857,1.7857,1.787,1.7896,1.7929,1.7935,1.7941,1.7962,1.797,1.7876,1.7876,1.7876,0,1.7346,1.7411,1.743,1.7476,1.7502,1.7509,1.7556,1.7583,1.7638,1.7656,1.7646,1.7737,1.7765,1.7832,1.7848,1.7868,1.788,1.7864,1.7933,1.7939,1.7945,1.7965,1.7973,1.7877,1.7877,1.7877,1.7877,0,1.7428,1.7473,1.7505,1.7557,1.7588,1.7634,1.7659,1.7688,1.7696,1.7716,1.7774,1.7808,1.7856,1.7873,1.7881,1.7941,1.7935,1.7929,1.791,1.7953,1.7973,1.7981,1.7878,1.7878,1.7878,1.7877,0,0,1.7485,1.7547,1.7559,1.7582,1.7631,1.7665,1.7712,1.7758,1.7782,1.782,1.7858,1.7919,1.7914,1.7941,1.7953,1.7982,1.8029,1.7973,1.7974,1.798,1.8096,1.8098,1.8107,1.8031,1.8032,1.8034,1.8092,0,1.7542,1.7624,1.7642,1.7713,1.7754,1.7761,1.7801,1.7835,1.7855,1.7892,1.7914,1.7957,1.7947,1.7964,1.7993,1.8017,1.8052,1.8014,1.8065,1.8067,1.8052,1.8118,1.8121,1.8174,1.81,1.8101,1.8102,0,1.7619,1.7658,1.7733,1.7775,1.7793,1.7829,1.7873,1.7909,1.7947,1.7959,1.799,1.7999,1.8046,1.8027,1.8092,1.8065,1.8087,1.8102,1.8105,1.8109,1.8085,1.8121,1.8192,1.8199,1.8114,1.8113,1.8113,0,1.7651,1.7722,1.7776,1.7796,1.7847,1.7872,1.7894,1.7931,1.7958,1.7997,1.8014,1.8058,1.8081,1.8115,1.8135,1.8119,1.8198,1.818,1.8208,1.8208,1.8223,1.8221,1.8295,1.8241,1.8241,1.824,1.824,0,1.7711,1.7756,1.7791,1.7823,1.7873,1.7894,1.7943,1.7966,1.7998,1.8035,1.8045,1.8079,1.8104,1.8142,1.8158,1.8209,1.822,1.823,1.8234,1.8228,1.8227,1.8242,1.8238,1.8243,1.8242,1.8242,1.8241,0,1.7754,1.7779,1.7838,1.7882,1.7894,1.7929,1.7966,1.7998,1.8018,1.8065,1.8077,1.8109,1.8153,1.8177,1.8233,1.8244,1.83,1.8303,1.8287,1.8288,1.8314,1.8311,1.8399,1.8411,1.835,1.8351,1.8351,0,1.779,1.7825,1.7872,1.7898,1.7921,1.7962,1.7989,1.8011,1.8039,1.8085,1.8111,1.8157,1.8194,1.8265,1.8292,1.8335,1.8337,1.8366,1.8344,1.8337,1.8336,1.8332,1.8335,1.8369,1.8369,1.837,1.837,0,1.7851,1.7861,1.7901,1.7944,1.7977,1.8012,1.8047,1.8067,1.8095,1.8126,1.8171,1.82,1.8258,1.8302,1.8347,1.8369,1.8374,1.8377,1.8385,1.8379,1.8368,1.8373,1.8295,1.8374,1.8374,1.8374,1.8373,1.8373,1.789,1.7921,1.7959,1.8002,1.8031,1.8063,1.8094,1.8119,1.8158,1.8206,1.8217,1.8265,1.8302,1.8363,1.8387,1.8424,1.8419,1.8431,1.8434,1.8436,1.8437,1.8364,1.8433,1.8433,1.8433,1.8433,1.8433,0,1.7949,1.7974,1.8014,1.8062,1.8096,1.8099,1.8137,1.8165,1.8207,1.8242,1.8278,1.8331,1.8374,1.8405,1.8449,1.8473,1.8476,1.8484,1.8481,1.8486,1.844,1.8427,1.848,1.848,1.848,1.848,1.848,1.848,1.7984,1.8035,1.8051,1.8116,1.8141,1.8188,1.821,1.8239,1.8267,1.8325,1.8361,1.8381,1.8414,1.8461,1.85,1.8508,1.8523,1.853,1.8538,1.8494,1.8489,1.8484,1.8472,1.8534,1.8534,1.8581,1.8581,1.8581]},{"header":{"parameterUnit":"m.s-1","parameterCategory":1,"la1":30.2991,"la2":30.254,"lo1":-89.0895,"lo2":-89.0444,"dy":0.0017,"dx":0.0017,"nx":28,"ny":28,"refTime":"2025-11-11T03:00:00:Z","depth":0,"parameterNumber":3,"parameterNumberName":"V-component_of_WINDS"},"data":[0,0,0,0,0,0,0,0,0,0,0,0,0,0,0,0,0,0,0,0,0,0,0,0,0,0,0,0,0,0,0,0,0,0,0,0,0,0,0,0,0,0,0,0,0,0,0,0,0,0,0,0,0,0,0,0,0,0,1.3153,1.3152,0,1.3107,1.3107,1.3106,1.3075,1.3075,1.3074,1.3074,1.3024,1.3023,1.3022,0,0,0,0,0,0,0,0,0,0,0,0,0,1.321,1.3209,1.3153,1.3152,1.3152,1.3107,1.3107,1.3106,1.3075,1.3075,1.3074,1.3074,1.3025,1.3023,1.3022,0,0,0,0,0,0,0,0,0,0,0,0,0,1.3177,1.3209,1.3153,1.3131,1.3129,1.3107,1.3107,1.3106,1.3075,1.3075,1.3074,1.3074,1.3025,1.3024,1.3022,1.3018,0,0,1.3017,1.3016,0,0,0,0,0,0,0,0,1.3179,1.3175,1.3135,1.3132,1.313,1.3096,1.3108,1.3076,1.3075,1.3095,1.3074,1.3074,1.3048,1.3045,1.3037,1.3016,1.3014,1.3017,1.3016,1.3015,1.3014,0,0,0,0,0,0,0,1.3181,1.3176,1.3135,1.3134,1.3131,1.3122,1.3117,1.3102,1.3074,1.3093,1.3091,1.3086,1.3047,1.3039,1.3035,1.3013,1.3017,1.3015,1.3014,1.3014,1.2985,1.2985,0,0,0,0,0,0,1.3187,1.3178,1.3136,1.3133,1.3154,1.3121,1.3116,1.3107,1.3074,1.3069,1.3087,1.3085,1.3042,1.3037,1.3034,1.3026,1.3015,1.3013,1.3012,1.2984,1.2985,1.2985,0,0,0,0,0,0,1.3188,1.3184,1.3138,1.3155,1.3149,1.3121,1.3112,1.3107,1.3098,1.3069,1.3064,1.3083,1.3041,1.3036,1.3022,1.3024,1.3013,1.3011,1.2984,1.2984,1.2985,1.3011,0,0,0,0,0,0,1.319,1.3184,1.3183,1.3155,1.3148,1.3128,1.3112,1.3106,1.3096,1.3093,1.3065,1.306,1.3041,1.3025,1.302,1.3021,1.301,1.2984,1.2984,1.2985,1.301,1.3013,1.3015,0,0,0,0,0,1.3192,1.3192,1.3184,1.3179,1.3147,1.3129,1.3124,1.3103,1.3096,1.3094,1.3075,1.306,1.3025,1.3024,1.3018,1.3019,1.2984,1.2984,1.2985,1.3009,1.3012,1.3015,0,0,0,0,0,0,1.3221,1.3188,1.3178,1.3169,1.3152,1.3123,1.3121,1.3107,1.3091,1.3089,1.3062,1.3056,1.3045,1.303,1.303,1.3013,1.3002,1.3002,1.3023,1.3025,1.3027,1.3031,1.3008,0,0,0,0,0,1.3226,1.3215,1.3187,1.3182,1.3174,1.3149,1.314,1.3126,1.3106,1.3098,1.3078,1.3059,1.3043,1.3033,1.3017,1.3008,1.3001,1.3006,1.3008,1.301,1.301,1.3002,1.3004,1.2987,1.2987,1.2987,0,0,1.3237,1.3218,1.3212,1.3187,1.3172,1.316,1.3143,1.3131,1.3122,1.3096,1.3082,1.3067,1.3043,1.3031,1.3025,1.3019,1.3013,1.3011,1.3012,1.3011,1.3003,1.3005,1.3006,1.2987,1.2987,1.2987,0,0,1.325,1.3235,1.3229,1.3214,1.3191,1.3174,1.3173,1.3146,1.3135,1.3121,1.3101,1.3089,1.3062,1.3046,1.3035,1.3041,1.3026,1.3036,1.3048,1.3041,1.3042,1.3043,1.3045,1.3046,1.3036,1.3036,1.3036,0,1.3266,1.3248,1.3227,1.3216,1.3205,1.3182,1.3175,1.3161,1.3134,1.3126,1.312,1.3086,1.3069,1.3052,1.3054,1.3046,1.3042,1.3039,1.3044,1.3045,1.3045,1.3046,1.3047,1.3038,1.3037,1.3037,1.3037,0,1.3268,1.3256,1.3254,1.3229,1.3218,1.3209,1.3185,1.3176,1.3162,1.3145,1.313,1.3108,1.3087,1.3082,1.3068,1.3063,1.306,1.3049,1.3038,1.3049,1.3049,1.3049,1.3039,1.3039,1.3039,1.3038,0,0,1.3298,1.3262,1.3261,1.3249,1.3222,1.3212,1.3201,1.3181,1.3173,1.3155,1.3145,1.3123,1.3113,1.3099,1.3083,1.3077,1.3082,1.3067,1.3066,1.307,1.3074,1.3082,1.3083,1.3073,1.3073,1.3073,1.3076,0,1.3307,1.3288,1.3268,1.3255,1.3243,1.3221,1.3211,1.3193,1.3177,1.3164,1.3145,1.313,1.3118,1.311,1.3103,1.3083,1.3083,1.3083,1.3061,1.3061,1.3068,1.3083,1.3092,1.3096,1.3076,1.3076,1.3076,0,1.3315,1.3298,1.3285,1.3258,1.3252,1.3245,1.3224,1.3212,1.319,1.3179,1.3164,1.3147,1.3133,1.3123,1.3103,1.3104,1.3094,1.3082,1.3082,1.3079,1.3069,1.308,1.3097,1.3097,1.3076,1.3076,1.3076,0,1.3337,1.3311,1.33,1.329,1.3259,1.3254,1.3241,1.3219,1.3208,1.3189,1.3181,1.3161,1.315,1.3135,1.3112,1.3107,1.3094,1.3083,1.3083,1.3083,1.3081,1.3081,1.3096,1.3075,1.3075,1.3075,1.3075,0,1.3348,1.3341,1.3309,1.3302,1.3293,1.3269,1.326,1.3244,1.3225,1.3213,1.3192,1.3181,1.3152,1.3138,1.312,1.3105,1.31,1.309,1.3085,1.3091,1.3093,1.3084,1.3083,1.3075,1.3075,1.3075,1.3075,0,1.3371,1.335,1.3336,1.3308,1.33,1.3295,1.327,1.3261,1.3244,1.3229,1.3224,1.3197,1.3179,1.3155,1.3128,1.3116,1.3103,1.3096,1.3111,1.3108,1.3109,1.3109,1.3119,1.3118,1.3099,1.3099,1.3099,0,1.338,1.3374,1.3345,1.3336,1.3324,1.331,1.3298,1.3274,1.3263,1.3237,1.3232,1.3212,1.3195,1.3166,1.3143,1.3123,1.3114,1.3119,1.3111,1.3117,1.3113,1.3114,1.3113,1.3121,1.3121,1.3122,1.3122,0,1.3397,1.3387,1.3372,1.3353,1.334,1.3324,1.3307,1.33,1.3273,1.3261,1.3242,1.3229,1.3202,1.3183,1.3159,1.3144,1.3127,1.3125,1.3123,1.3129,1.3138,1.3133,1.3116,1.3124,1.3124,1.3124,1.3124,1.3124,1.3412,1.3405,1.3384,1.3368,1.3352,1.3337,1.3327,1.3309,1.3293,1.327,1.3257,1.3238,1.3215,1.3182,1.3167,1.3152,1.3146,1.3144,1.3144,1.3143,1.3145,1.3141,1.3147,1.3147,1.3147,1.3147,1.3147,0,1.3428,1.3413,1.3398,1.3375,1.3362,1.3349,1.3329,1.3318,1.3303,1.3283,1.3267,1.3245,1.3225,1.3201,1.3179,1.3171,1.3163,1.3166,1.3166,1.3162,1.3152,1.3155,1.3173,1.3173,1.3173,1.3173,1.3173,1.3173,1.3434,1.3421,1.3408,1.3387,1.3372,1.3355,1.3344,1.3329,1.3313,1.329,1.3274,1.3258,1.3236,1.3212,1.3193,1.3186,1.3179,1.3184,1.3175,1.3166,1.3163,1.3161,1.3164,1.3183,1.3183,1.3186,1.3186,1.3186]}]]